Findlay, OH

10:50 AM EDT on September 19, 2017 (GMT -0400)
Findlay

Weather History for KFDY - December, 2012

Change the Weather History Date:

Wednesday, December 12, 2012

  Actual Average Record
Temperature  
Mean Temperature 32 °F -  
Max Temperature 41 °F 39 °F 70 °F (2015)
Min Temperature 23 °F 25 °F -11 °F (1962)
Degree Days  
Heating Degree Days 33    
Moisture  
Dew Point 24 °F    
Average Humidity 78    
Maximum Humidity 92    
Minimum Humidity 58    
Precipitation  
Precipitation 0.00 in - - ()
Sea Level Pressure  
Sea Level Pressure 30.35 in    
Wind  
Wind Speed 7 mph (South)    
Max Wind Speed 9 mph    
Max Gust Speed -    
Visibility 10 miles    
Events      
Averages and records for this station are not official NWS values.
T = Trace of Precipitation, MM = Missing Value Source: NWS Daily Summary

Daily Weather History Graph

Daily Weather History Graph

Search for Another Location

Airport or City:

Trip Planner

Search our weather history database for the weather conditions in past years. The results will help you decide how hot, cold, wet, or windy it might be!

Date:

Astronomy

Dec. 12, 2012 Rise Set
Actual Time 7:50 AM EST 5:06 PM EST
Civil Twilight 7:19 AM EST 5:37 PM EST
Nautical Twilight 6:45 AM EST 6:12 PM EST
Astronomical Twilight 6:11 AM EST 6:45 PM EST
Moon 6:53 AM EST (12/12) 4:42 PM EST (12/12)
Length of Visible Light 10h 18m
Length of Day
9h 15m
Waning Crescent, 1% of the Moon is Illuminated
Dec 12
Waning Crescent
Dec 13
New
Dec 20
First Quarter
Dec 28
Full
Jan 4
Last Quarter

Hourly Weather History & Observations

Time (EST) Temp. Windchill Dew Point Humidity Pressure Visibility Wind Dir Wind Speed Gust Speed Precip Events Conditions
12:53 AM 27.0 °F 18.7 °F 23.0 °F 85% 30.23 in 10.0 mi SSW 8.1 mph - N/A   Clear
1:53 AM 27.0 °F 18.0 °F 23.0 °F 85% 30.24 in 10.0 mi SSW 9.2 mph - N/A   Clear
2:53 AM 26.1 °F 17.6 °F 21.9 °F 84% 30.26 in 10.0 mi SSW 8.1 mph - N/A   Clear
3:53 AM 26.1 °F 18.4 °F 21.9 °F 84% 30.28 in 9.0 mi SSW 6.9 mph - N/A   Clear
4:53 AM 25.0 °F 17.1 °F 21.9 °F 88% 30.28 in 9.0 mi SSW 6.9 mph - N/A   Clear
5:53 AM 25.0 °F 17.1 °F 21.9 °F 88% 30.31 in 8.0 mi South 6.9 mph - N/A   Clear
6:53 AM 24.1 °F 17.0 °F 21.0 °F 88% 30.33 in 8.0 mi SSW 5.8 mph - N/A   Clear
7:53 AM 23.0 °F 15.8 °F 21.0 °F 92% 30.35 in 6.0 mi SSW 5.8 mph - N/A   Clear
8:53 AM 27.0 °F 20.5 °F 24.1 °F 89% 30.35 in 7.0 mi South 5.8 mph - N/A   Clear
9:53 AM 30.9 °F 23.5 °F 25.0 °F 79% 30.37 in 10.0 mi SSW 8.1 mph - N/A   Clear
10:53 AM 35.1 °F 29.3 °F 26.1 °F 70% 30.38 in 10.0 mi South 6.9 mph - N/A   Clear
11:53 AM 37.0 °F 31.0 °F 28.0 °F 70% 30.38 in 10.0 mi South 8.1 mph - N/A   Clear
12:53 PM 39.0 °F 32.8 °F 28.9 °F 67% 30.37 in 10.0 mi SSW 9.2 mph - N/A   Clear
1:53 PM 39.9 °F 33.9 °F 27.0 °F 60% 30.37 in 10.0 mi SSW 9.2 mph - N/A   Clear
2:53 PM 41.0 °F 35.8 °F 28.0 °F 60% 30.35 in 10.0 mi SSW 8.1 mph - N/A   Clear
3:53 PM 39.9 °F 35.1 °F 26.1 °F 58% 30.35 in 10.0 mi South 6.9 mph - N/A   Clear
4:53 PM 35.1 °F 30.1 °F 26.1 °F 70% 30.36 in 10.0 mi South 5.8 mph - N/A   Clear
5:53 PM 33.1 °F 30.0 °F 26.1 °F 75% 30.37 in 10.0 mi South 3.5 mph - N/A   Clear
6:53 PM 32.0 °F 28.7 °F 25.0 °F 75% 30.38 in 10.0 mi South 3.5 mph - N/A   Clear
7:53 PM 32.0 °F 28.7 °F 25.0 °F 75% 30.39 in 10.0 mi South 3.5 mph - N/A   Clear
8:53 PM 30.0 °F 24.1 °F 25.0 °F 82% 30.40 in 10.0 mi SSE 5.8 mph - N/A   Clear
9:53 PM 28.9 °F 22.8 °F 24.1 °F 82% 30.40 in 10.0 mi SSE 5.8 mph - N/A   Clear
10:53 PM 28.0 °F 20.0 °F 23.0 °F 81% 30.40 in 10.0 mi South 8.1 mph - N/A   Clear
11:53 PM 27.0 °F 19.5 °F 23.0 °F 85% 30.40 in 10.0 mi South 6.9 mph - N/A   Clear